Location: *
(44.3683°N, 6.6958°E)
Time: 11:14:24
(UTC+00:00)

Lacrosse 5 rocket - Pass Details

Date: 14 October 2019
Orbit: 459 x 639 km, 57.0° (Epoch: 19 November)

Event Time Altitude Azimuth Distance (km) Brightness Sun altitude
Rises 19:49:31 0° 293° (WNW) 2,596 5.9 -32.1°
Reaches altitude 10° 19:52:41 10° 265° (W) 1,748 4.5 -32.7°
Enters shadow 19:53:33 12° 252° (WSW) 1,633 4.2 -32.8°
